START_TIME,STEP,MOV.,A46,t_acc.,A13,t_acc.,M47,t_acc.,A17,t_acc.,A28,t_acc.,M38,t_acc.
1979-07-28 18:00:24.670 ,0,1,,0,12.,4.8,0.,4.8,,0,0.,4.8,3.,4.8
1979-07-28 18:00:29.470 ,0,1,,0,8.,4.8,0.,4.8,,0,0.,4.8,1.,4.8
1979-07-28 18:00:34.270 ,0,1,,0,6.,4.8,0.,4.8,,0,0.,4.8,6.,4.8
1979-07-28 18:00:39.070 ,0,1,,0,0.,4.8,0.,4.8,,0,0.,4.8,3.,4.8
1979-07-28 18:00:43.870 ,0,1,,0,0.,4.8,0.,4.8,,0,0.,4.8,2.,4.8
1979-07-28 18:00:48.670 ,4,1,,0,0.,4.8,0.,4.8,,0,0.,4.8,4.,4.8
1979-07-28 18:00:53.470 ,4,1,,0,0.,4.8,0.,4.8,,0,0.,4.8,1.,4.8
1979-07-28 18:00:58.270 ,4,1,,0,0.,4.8,0.,4.8,,0,0.,4.8,4.,4.8
1979-07-28 18:01:03.070 ,4,1,,0,9.,4.8,0.,4.8,,0,0.,4.8,5.,4.8
1979-07-28 18:01:07.870 ,4,1,,0,4.,4.8,0.,4.8,,0,0.,4.8,2.,4.8
1979-07-28 18:01:12.670 ,7,1,,0,6.,4.8,0.,4.8,,0,0.,4.8,2.,4.8
1979-07-28 18:01:17.470 ,7,1,,0,3.,4.8,0.,4.8,,0,0.,4.8,2.,4.8
1979-07-28 18:01:22.270 ,7,1,,0,5.,4.8,0.,4.8,,0,0.,4.8,4.,4.8
1979-07-28 18:01:27.070 ,7,1,,0,0.,4.8,0.,4.8,,0,0.,4.8,0.,4.8
1979-07-28 18:01:31.870 ,7,1,,0,0.,4.8,0.,4.8,,0,0.,4.8,0.,4.8
1979-07-28 18:01:36.670 ,3,1,,0,0.,4.8,0.,4.8,,0,0.,4.8,1.,4.8
1979-07-28 18:01:41.470 ,3,1,,0,0.,4.8,0.,4.8,,0,0.,4.8,5.,4.8
1979-07-28 18:01:46.270 ,3,1,,0,1.,4.8,0.,4.8,,0,0.,4.8,2.,4.8
1979-07-28 18:01:51.070 ,3,1,,0,8.,4.8,1.,4.8,,0,0.,4.8,0.,4.8
1979-07-28 18:01:55.870 ,3,1,,0,7.,4.8,0.,4.8,,0,0.,4.8,6.,4.8
1979-07-28 18:02:00.670 ,0,1,,0,3.,4.8,0.,4.8,,0,0.,4.8,2.,4.8
1979-07-28 18:02:05.470 ,0,1,,0,8.,4.8,1.,4.8,,0,0.,4.8,1.,4.8
1979-07-28 18:02:10.270 ,0,1,,0,5.,4.8,0.,4.8,,0,0.,4.8,1.,4.8
1979-07-28 18:02:15.070 ,0,1,,0,0.,4.8,0.,4.8,,0,0.,4.8,3.,4.8
1979-07-28 18:02:19.870 ,0,1,,0,0.,4.8,0.,4.8,,0,0.,4.8,0.,4.8
1979-07-28 18:02:24.670 ,4,1,,0,0.,4.8,0.,4.8,,0,0.,4.8,4.,4.8
1979-07-28 18:02:29.470 ,4,1,,0,0.,4.8,0.,4.8,,0,0.,4.8,4.,4.8
1979-07-28 18:02:34.270 ,4,1,,0,1.,4.8,0.,4.8,,0,0.,4.8,3.,4.8
1979-07-28 18:02:39.070 ,4,1,,0,9.,4.8,0.,4.8,,0,0.,4.8,6.,4.8
1979-07-28 18:02:43.870 ,4,1,,0,10.,4.8,1.,4.8,,0,0.,4.8,3.,4.8
1979-07-28 18:02:48.670 ,7,1,,0,7.,4.8,0.,4.8,,0,0.,4.8,3.,4.8
1979-07-28 18:02:53.470 ,7,1,,0,9.,4.8,0.,4.8,,0,0.,4.8,0.,4.8
1979-07-28 18:02:58.270 ,7,1,,0,5.,4.8,0.,4.8,,0,0.,4.8,1.,4.8
1979-07-28 18:03:03.070 ,7,1,,0,0.,4.8,0.,4.8,,0,0.,4.8,0.,4.8
1979-07-28 18:03:07.870 ,7,1,,0,0.,4.8,0.,4.8,,0,0.,4.8,0.,4.8
1979-07-28 18:03:12.670 ,3,1,,0,0.,4.8,0.,4.8,,0,0.,4.8,1.,4.8
1979-07-28 18:03:17.470 ,3,1,,0,0.,4.8,0.,4.8,,0,0.,4.8,0.,4.8
1979-07-28 18:03:22.270 ,3,1,,0,1.,4.8,0.,4.8,,0,0.,4.8,0.,4.8
1979-07-28 18:03:27.070 ,3,1,,0,7.,4.8,0.,4.8,,0,0.,4.8,2.,4.8
1979-07-28 18:03:31.870 ,3,1,,0,9.,4.8,0.,4.8,,0,0.,4.8,4.,4.8
1979-07-28 18:03:36.670 ,0,1,,0,7.,4.8,0.,4.8,,0,0.,4.8,4.,4.8
1979-07-28 18:03:41.470 ,0,1,,0,7.,4.8,1.,4.8,,0,0.,4.8,7.,4.8
1979-07-28 18:03:46.270 ,0,1,,0,7.,4.8,0.,4.8,,0,0.,4.8,1.,4.8
1979-07-28 18:03:51.070 ,0,1,,0,0.,4.8,0.,4.8,,0,0.,4.8,0.,4.8
1979-07-28 18:03:55.870 ,0,1,,0,0.,4.8,0.,4.8,,0,0.,4.8,2.,4.8
1979-07-28 18:04:00.670 ,4,1,,0,0.,4.8,0.,4.8,,0,0.,4.8,2.,4.8
1979-07-28 18:04:05.470 ,4,1,,0,0.,4.8,0.,4.8,,0,0.,4.8,3.,4.8
1979-07-28 18:04:10.270 ,4,1,,0,2.,4.8,0.,4.8,,0,0.,4.8,5.,4.8
1979-07-28 18:04:15.070 ,4,1,,0,13.,4.8,1.,4.8,,0,0.,4.8,5.,4.8
1979-07-28 18:04:19.870 ,4,1,,0,5.,4.8,0.,4.8,,0,0.,4.8,4.,4.8
1979-07-28 18:04:24.670 ,7,1,,0,8.,4.8,0.,4.8,,0,0.,4.8,2.,4.8
1979-07-28 18:04:29.470 ,7,1,,0,6.,4.8,0.,4.8,,0,0.,4.8,3.,4.8
1979-07-28 18:04:34.270 ,7,1,,0,7.,4.8,0.,4.8,,0,0.,4.8,3.,4.8
1979-07-28 18:04:39.070 ,7,1,,0,0.,4.8,0.,4.8,,0,0.,4.8,0.,4.8
1979-07-28 18:04:43.870 ,7,1,,0,0.,4.8,0.,4.8,,0,0.,4.8,0.,4.8
1979-07-28 18:04:48.670 ,3,1,,0,0.,4.8,0.,4.8,,0,0.,4.8,1.,4.8
1979-07-28 18:04:53.470 ,3,1,,0,0.,4.8,0.,4.8,,0,0.,4.8,2.,4.8
1979-07-28 18:04:58.270 ,3,1,,0,0.,4.8,0.,4.8,,0,0.,4.8,0.,4.8
1979-07-28 18:05:03.070 ,3,1,,0,4.,4.8,0.,4.8,,0,0.,4.8,3.,4.8
1979-07-28 18:05:07.870 ,3,1,,0,4.,4.8,0.,4.8,,0,0.,4.8,4.,4.8
1979-07-28 18:05:12.670 ,0,1,,0,10.,4.8,1.,4.8,,0,0.,4.8,6.,4.8
1979-07-28 18:05:17.470 ,0,1,,0,9.,4.8,0.,4.8,,0,0.,4.8,2.,4.8
1979-07-28 18:05:22.270 ,0,1,,0,1.,4.8,0.,4.8,,0,0.,4.8,2.,4.8
1979-07-28 18:05:27.070 ,0,1,,0,0.,4.8,0.,4.8,,0,0.,4.8,3.,4.8
1979-07-28 18:05:31.870 ,0,1,,0,0.,4.8,0.,4.8,,0,0.,4.8,2.,4.8
1979-07-28 18:05:36.670 ,0,0,,0,0.,4.8,0.,4.8,,0,0.,4.8,1.,4.8
1979-07-28 18:05:41.470 ,0,0,,0,0.,4.8,0.,4.8,,0,0.,4.8,5.,4.8
1979-07-28 18:05:46.270 ,0,0,,0,3.,4.8,0.,4.8,,0,0.,4.8,2.,4.8
1979-07-28 18:05:51.070 ,0,0,,0,8.,4.8,0.,4.8,,0,0.,4.8,4.,4.8
1979-07-28 18:05:55.870 ,0,0,,0,6.,4.8,0.,4.8,,0,1.,4.8,1.,4.8
1979-07-28 18:06:00.670 ,0,0,,0,6.,4.8,0.,4.8,,0,0.,4.8,0.,4.8
1979-07-28 18:06:05.470 ,0,0,,0,4.,4.8,0.,4.8,,0,0.,4.8,2.,4.8
1979-07-28 18:06:10.270 ,0,0,,0,6.,4.8,1.,4.8,,0,0.,4.8,1.,4.8
1979-07-28 18:06:15.070 ,0,0,,0,0.,4.8,0.,4.8,,0,0.,4.8,0.,4.8
1979-07-28 18:06:19.870 ,0,0,,0,0.,4.8,0.,4.8,,0,0.,4.8,0.,4.8
1979-07-28 18:06:24.670 ,5,0,,0,0.,4.8,0.,4.8,,0,0.,4.8,2.,4.8
1979-07-28 18:06:29.470 ,5,0,,0,0.,4.8,0.,4.8,,0,0.,4.8,3.,4.8
1979-07-28 18:06:34.270 ,5,0,,0,1.,4.8,0.,4.8,,0,0.,4.8,1.,4.8
1979-07-28 18:06:39.070 ,5,0,,0,4.,4.8,0.,4.8,,0,0.,4.8,2.,4.8
1979-07-28 18:06:43.870 ,5,0,,0,4.,4.8,0.,4.8,,0,0.,4.8,1.,4.8
1979-07-28 18:06:48.670 ,5,0,,0,4.,4.8,0.,4.8,,0,0.,4.8,2.,4.8
1979-07-28 18:06:53.470 ,5,0,,0,9.,4.8,0.,4.8,,0,0.,4.8,0.,4.8
1979-07-28 18:06:58.270 ,5,0,,0,4.,4.8,0.,4.8,,0,0.,4.8,1.,4.8
1979-07-28 18:07:03.070 ,5,0,,0,0.,4.8,0.,4.8,,0,0.,4.8,2.,4.8
1979-07-28 18:07:07.870 ,5,0,,0,0.,4.8,0.,4.8,,0,0.,4.8,1.,4.8
1979-07-28 18:07:12.670 ,4,0,,0,0.,4.8,0.,4.8,,0,0.,4.8,0.,4.8
1979-07-28 18:07:17.470 ,4,0,,0,0.,4.8,0.,4.8,,0,0.,4.8,1.,4.8
1979-07-28 18:07:22.270 ,4,0,,0,0.,4.8,0.,4.8,,0,0.,4.8,2.,4.8
1979-07-28 18:07:27.070 ,4,0,,0,5.,4.8,0.,4.8,,0,0.,4.8,5.,4.8
1979-07-28 18:07:31.870 ,4,0,,0,6.,4.8,0.,4.8,,0,0.,4.8,1.,4.8
1979-07-28 18:07:36.670 ,4,0,,0,5.,4.8,0.,4.8,,0,1.,4.8,3.,4.8
1979-07-28 18:07:41.470 ,4,0,,0,6.,4.8,1.,4.8,,0,0.,4.8,2.,4.8
1979-07-28 18:07:46.270 ,4,0,,0,6.,4.8,0.,4.8,,0,0.,4.8,1.,4.8
1979-07-28 18:07:51.070 ,4,0,,0,0.,4.8,1.,4.8,,0,0.,4.8,1.,4.8
1979-07-28 18:07:55.870 ,4,0,,0,0.,4.8,0.,4.8,,0,0.,4.8,2.,4.8
1979-07-28 18:08:00.670 ,3,0,,0,0.,4.8,0.,4.8,,0,0.,4.8,1.,4.8
1979-07-28 18:08:05.470 ,3,0,,0,0.,4.8,0.,4.8,,0,0.,4.8,6.,4.8
1979-07-28 18:08:10.270 ,3,0,,0,1.,4.8,1.,4.8,,0,0.,4.8,2.,4.8
1979-07-28 18:08:15.070 ,3,0,,0,12.,4.8,0.,4.8,,0,0.,4.8,3.,4.8
1979-07-28 18:08:19.870 ,3,0,,0,11.,4.8,0.,4.8,,0,0.,4.8,5.,4.8
1979-07-28 18:08:24.670 ,3,0,,0,7.,4.8,0.,4.8,,0,0.,4.8,4.,4.8
1979-07-28 18:08:29.470 ,3,0,,0,7.,4.8,0.,4.8,,0,0.,4.8,5.,4.8
1979-07-28 18:08:34.270 ,3,0,,0,5.,4.8,0.,4.8,,0,0.,4.8,4.,4.8
1979-07-28 18:08:39.070 ,3,0,,0,0.,4.8,0.,4.8,,0,0.,4.8,0.,4.8
1979-07-28 18:08:43.870 ,3,0,,0,0.,4.8,0.,4.8,,0,0.,4.8,4.,4.8
1979-07-28 18:08:48.670 ,2,0,,0,0.,4.8,0.,4.8,,0,0.,4.8,3.,4.8
1979-07-28 18:08:53.470 ,2,0,,0,0.,4.8,0.,4.8,,0,0.,4.8,3.,4.8
1979-07-28 18:08:58.270 ,2,0,,0,0.,4.8,0.,4.8,,0,0.,4.8,5.,4.8
1979-07-28 18:09:03.070 ,2,0,,0,5.,4.8,1.,4.8,,0,0.,4.8,4.,4.8
1979-07-28 18:09:07.870 ,2,0,,0,6.,4.8,0.,4.8,,0,0.,4.8,3.,4.8
1979-07-28 18:09:12.670 ,2,0,,0,8.,4.8,0.,4.8,,0,0.,4.8,4.,4.8
1979-07-28 18:09:17.470 ,2,0,,0,9.,4.8,1.,4.8,,0,0.,4.8,4.,4.8
1979-07-28 18:09:22.270 ,2,0,,0,4.,4.8,0.,4.8,,0,0.,4.8,2.,4.8
1979-07-28 18:09:27.070 ,2,0,,0,0.,4.8,0.,4.8,,0,0.,4.8,5.,4.8
1979-07-28 18:09:31.870 ,2,0,,0,0.,4.8,0.,4.8,,0,0.,4.8,8.,4.8
1979-07-28 18:09:36.670 ,1,0,,0,0.,4.8,0.,4.8,,0,0.,4.8,7.,4.8
1979-07-28 18:09:41.470 ,1,0,,0,0.,4.8,0.,4.8,,0,0.,4.8,2.,4.8
1979-07-28 18:09:46.270 ,1,0,,0,2.,4.8,0.,4.8,,0,0.,4.8,2.,4.8
1979-07-28 18:09:51.070 ,1,0,,0,13.,4.8,2.,4.8,,0,0.,4.8,2.,4.8
1979-07-28 18:09:55.870 ,1,0,,0,9.,4.8,2.,4.8,,0,0.,4.8,3.,4.8
1979-07-28 18:10:00.670 ,1,0,,0,9.,4.8,0.,4.8,,0,0.,4.8,0.,4.8
1979-07-28 18:10:05.470 ,1,0,,0,3.,4.8,0.,4.8,,0,0.,4.8,1.,4.8
1979-07-28 18:10:10.270 ,1,0,,0,9.,4.8,0.,4.8,,0,0.,4.8,6.,4.8
1979-07-28 18:10:15.070 ,1,0,,0,0.,4.8,0.,4.8,,0,0.,4.8,1.,4.8
1979-07-28 18:10:19.870 ,1,0,,0,0.,4.8,0.,4.8,,0,0.,4.8,2.,4.8
1979-07-28 18:10:24.670 ,0,0,,0,0.,4.8,0.,4.8,,0,0.,4.8,1.,4.8
1979-07-28 18:10:29.470 ,0,0,,0,0.,4.8,0.,4.8,,0,0.,4.8,1.,4.8
1979-07-28 18:10:34.270 ,0,0,,0,1.,4.8,0.,4.8,,0,0.,4.8,1.,4.8
1979-07-28 18:10:39.070 ,0,0,,0,5.,4.8,0.,4.8,,0,0.,4.8,0.,4.8
1979-07-28 18:10:43.870 ,0,0,,0,5.,4.8,0.,4.8,,0,0.,4.8,0.,4.8
1979-07-28 18:10:48.670 ,0,0,,0,4.,4.8,0.,4.8,,0,0.,4.8,2.,4.8
1979-07-28 18:10:53.470 ,0,0,,0,5.,4.8,0.,4.8,,0,0.,4.8,2.,4.8
1979-07-28 18:10:58.270 ,0,0,,0,1.,4.8,0.,4.8,,0,0.,4.8,0.,4.8
1979-07-28 18:11:03.070 ,0,0,,0,0.,4.8,0.,4.8,,0,0.,4.8,0.,4.8
1979-07-28 18:11:07.870 ,0,0,,0,0.,4.8,0.,4.8,,0,0.,4.8,3.,4.8
1979-07-28 18:11:12.670 ,0,0,,0,0.,4.8,0.,4.8,,0,0.,4.8,1.,4.8
1979-07-28 18:11:17.470 ,0,0,,0,0.,4.8,0.,4.8,,0,0.,4.8,2.,4.8
1979-07-28 18:11:22.270 ,0,0,,0,1.,4.8,0.,4.8,,0,0.,4.8,0.,4.8
1979-07-28 18:11:27.070 ,0,0,,0,4.,4.8,0.,4.8,,0,0.,4.8,0.,4.8
1979-07-28 18:11:31.870 ,0,0,,0,3.,4.8,0.,4.8,,0,0.,4.8,1.,4.8
1979-07-28 18:11:36.670 ,0,0,,0,6.,4.8,0.,4.8,,0,0.,4.8,5.,4.8
1979-07-28 18:11:41.470 ,0,0,,0,4.,4.8,0.,4.8,,0,0.,4.8,3.,4.8
1979-07-28 18:11:46.270 ,0,0,,0,3.,4.8,0.,4.8,,0,0.,4.8,2.,4.8
1979-07-28 18:11:51.070 ,0,0,,0,0.,4.8,0.,4.8,,0,0.,4.8,3.,4.8
1979-07-28 18:11:55.870 ,0,0,,0,0.,4.8,0.,4.8,,0,0.,4.8,1.,4.8
1979-07-28 18:12:00.670 ,1,0,,0,0.,4.8,0.,4.8,,0,0.,4.8,1.,4.8
1979-07-28 18:12:05.470 ,1,0,,0,0.,4.8,0.,4.8,,0,0.,4.8,2.,4.8
1979-07-28 18:12:10.270 ,1,0,,0,1.,4.8,0.,4.8,,0,0.,4.8,1.,4.8
1979-07-28 18:12:15.070 ,1,0,,0,3.,4.8,0.,4.8,,0,0.,4.8,3.,4.8
1979-07-28 18:12:19.870 ,1,0,,0,5.,4.8,0.,4.8,,0,0.,4.8,3.,4.8
1979-07-28 18:12:24.670 ,1,0,,0,3.,4.8,1.,4.8,,0,0.,4.8,1.,4.8
1979-07-28 18:12:29.470 ,1,0,,0,4.,4.8,1.,4.8,,0,0.,4.8,3.,4.8
1979-07-28 18:12:34.270 ,1,0,,0,4.,4.8,0.,4.8,,0,0.,4.8,3.,4.8
1979-07-28 18:12:39.070 ,1,0,,0,0.,4.8,0.,4.8,,0,0.,4.8,3.,4.8
1979-07-28 18:12:43.870 ,1,0,,0,0.,4.8,0.,4.8,,0,0.,4.8,1.,4.8
1979-07-28 18:12:48.670 ,2,0,,0,0.,4.8,0.,4.8,,0,0.,4.8,2.,4.8
1979-07-28 18:12:53.470 ,2,0,,0,0.,4.8,0.,4.8,,0,0.,4.8,2.,4.8
1979-07-28 18:12:58.270 ,2,0,,0,1.,4.8,0.,4.8,,0,0.,4.8,4.,4.8
1979-07-28 18:13:03.070 ,2,0,,0,10.,4.8,0.,4.8,,0,0.,4.8,3.,4.8
1979-07-28 18:13:07.870 ,2,0,,0,13.,4.8,0.,4.8,,0,0.,4.8,3.,4.8
1979-07-28 18:13:12.670 ,2,0,,0,14.,4.8,0.,4.8,,0,0.,4.8,7.,4.8
1979-07-28 18:13:17.470 ,2,0,,0,11.,4.8,1.,4.8,,0,1.,4.8,6.,4.8
1979-07-28 18:13:22.270 ,2,0,,0,6.,4.8,0.,4.8,,0,0.,4.8,5.,4.8
1979-07-28 18:13:27.070 ,2,0,,0,0.,4.8,0.,4.8,,0,0.,4.8,5.,4.8
1979-07-28 18:13:31.870 ,2,0,,0,0.,4.8,0.,4.8,,0,0.,4.8,3.,4.8
1979-07-28 18:13:36.670 ,3,0,,0,0.,4.8,0.,4.8,,0,0.,4.8,5.,4.8
1979-07-28 18:13:41.470 ,3,0,,0,0.,4.8,0.,4.8,,0,0.,4.8,6.,4.8
1979-07-28 18:13:46.270 ,3,0,,0,0.,4.8,0.,4.8,,0,0.,4.8,3.,4.8
1979-07-28 18:13:51.070 ,3,0,,0,12.,4.8,0.,4.8,,0,0.,4.8,3.,4.8
1979-07-28 18:13:55.870 ,3,0,,0,4.,4.8,0.,4.8,,0,0.,4.8,4.,4.8
1979-07-28 18:14:00.670 ,3,0,,0,6.,4.8,0.,4.8,,0,0.,4.8,8.,4.8
1979-07-28 18:14:05.470 ,3,0,,0,5.,4.8,1.,4.8,,0,0.,4.8,2.,4.8
1979-07-28 18:14:10.270 ,3,0,,0,8.,4.8,1.,4.8,,0,0.,4.8,5.,4.8
1979-07-28 18:14:15.070 ,3,0,,0,0.,4.8,0.,4.8,,0,0.,4.8,5.,4.8
1979-07-28 18:14:19.870 ,3,0,,0,0.,4.8,0.,4.8,,0,0.,4.8,3.,4.8
1979-07-28 18:14:24.670 ,4,0,,0,0.,4.8,0.,4.8,,0,0.,4.8,4.,4.8
1979-07-28 18:14:29.470 ,4,0,,0,0.,4.8,0.,4.8,,0,0.,4.8,4.,4.8
1979-07-28 18:14:34.270 ,4,0,,0,1.,4.8,0.,4.8,,0,0.,4.8,2.,4.8
1979-07-28 18:14:39.070 ,4,0,,0,5.,4.8,1.,4.8,,0,0.,4.8,0.,4.8
1979-07-28 18:14:43.870 ,4,0,,0,7.,4.8,0.,4.8,,0,0.,4.8,3.,4.8
1979-07-28 18:14:48.670 ,4,0,,0,11.,4.8,0.,4.8,,0,0.,4.8,2.,4.8
1979-07-28 18:14:53.470 ,4,0,,0,7.,4.8,0.,4.8,,0,0.,4.8,2.,4.8
1979-07-28 18:14:58.270 ,4,0,,0,6.,4.8,0.,4.8,,0,0.,4.8,4.,4.8
1979-07-28 18:15:03.070 ,4,0,,0,0.,4.8,0.,4.8,,0,0.,4.8,3.,4.8
1979-07-28 18:15:07.870 ,4,0,,0,0.,4.8,0.,4.8,,0,0.,4.8,5.,4.8
1979-07-28 18:15:12.670 ,5,0,,0,0.,4.8,0.,4.8,,0,0.,4.8,2.,4.8
1979-07-28 18:15:17.470 ,5,0,,0,0.,4.8,0.,4.8,,0,0.,4.8,4.,4.8
1979-07-28 18:15:22.270 ,5,0,,0,2.,4.8,0.,4.8,,0,0.,4.8,1.,4.8
1979-07-28 18:15:27.070 ,5,0,,0,4.,4.8,0.,4.8,,0,0.,4.8,2.,4.8
1979-07-28 18:15:31.870 ,5,0,,0,4.,4.8,0.,4.8,,0,0.,4.8,0.,4.8
1979-07-28 18:15:36.670 ,5,0,,0,4.,4.8,0.,4.8,,0,0.,4.8,2.,4.8
1979-07-28 18:15:41.470 ,5,0,,0,5.,4.8,0.,4.8,,0,0.,4.8,3.,4.8
1979-07-28 18:15:46.270 ,5,0,,0,3.,4.8,0.,4.8,,0,0.,4.8,1.,4.8
1979-07-28 18:15:51.070 ,5,0,,0,0.,4.8,0.,4.8,,0,0.,4.8,0.,4.8
1979-07-28 18:15:55.870 ,5,0,,0,0.,4.8,0.,4.8,,0,0.,4.8,1.,4.8
1979-07-28 18:16:00.670 ,6,0,,0,0.,4.8,0.,4.8,,0,0.,4.8,3.,4.8
1979-07-28 18:16:05.470 ,6,0,,0,0.,4.8,0.,4.8,,0,0.,4.8,1.,4.8
1979-07-28 18:16:10.270 ,6,0,,0,1.,4.8,0.,4.8,,0,0.,4.8,4.,4.8
1979-07-28 18:16:15.070 ,6,0,,0,8.,4.8,1.,4.8,,0,0.,4.8,2.,4.8
1979-07-28 18:16:19.870 ,6,0,,0,8.,4.8,0.,4.8,,0,0.,4.8,2.,4.8
1979-07-28 18:16:24.670 ,6,0,,0,4.,4.8,1.,4.8,,0,0.,4.8,0.,4.8
1979-07-28 18:16:29.470 ,6,0,,0,8.,4.8,2.,4.8,,0,0.,4.8,2.,4.8
1979-07-28 18:16:34.270 ,6,0,,0,6.,4.8,0.,4.8,,0,0.,4.8,6.,4.8
1979-07-28 18:16:39.070 ,6,0,,0,0.,4.8,0.,4.8,,0,0.,4.8,0.,4.8
1979-07-28 18:16:43.870 ,6,0,,0,0.,4.8,0.,4.8,,0,0.,4.8,5.,4.8
1979-07-28 18:16:48.670 ,7,0,,0,0.,4.8,0.,4.8,,0,0.,4.8,0.,4.8
1979-07-28 18:16:53.470 ,7,0,,0,0.,4.8,0.,4.8,,0,1.,4.8,2.,4.8
1979-07-28 18:16:58.270 ,7,0,,0,2.,4.8,0.,4.8,,0,0.,4.8,0.,4.8
1979-07-28 18:17:03.070 ,7,0,,0,8.,4.8,0.,4.8,,0,0.,4.8,0.,4.8
1979-07-28 18:17:07.870 ,7,0,,0,9.,4.8,0.,4.8,,0,0.,4.8,0.,4.8
1979-07-28 18:17:12.670 ,7,0,,0,7.,4.8,0.,4.8,,0,0.,4.8,0.,4.8
1979-07-28 18:17:17.470 ,7,0,,0,12.,4.8,0.,4.8,,0,0.,4.8,0.,4.8
1979-07-28 18:17:22.270 ,7,0,,0,9.,4.8,0.,4.8,,0,0.,4.8,0.,4.8
1979-07-28 18:17:27.070 ,7,0,,0,0.,4.8,0.,4.8,,0,0.,4.8,0.,4.8
1979-07-28 18:17:31.870 ,7,0,,0,0.,4.8,0.,4.8,,0,0.,4.8,0.,4.8
1979-07-28 18:17:36.670 ,7,0,,0,0.,4.8,0.,4.8,,0,0.,4.8,0.,4.8
1979-07-28 18:17:41.470 ,7,0,,0,0.,4.8,0.,4.8,,0,0.,4.8,0.,4.8
1979-07-28 18:17:46.270 ,7,0,,0,2.,4.8,0.,4.8,,0,0.,4.8,0.,4.8
1979-07-28 18:17:51.070 ,7,0,,0,7.,4.8,0.,4.8,,0,0.,4.8,0.,4.8
1979-07-28 18:17:55.870 ,7,0,,0,12.,4.8,0.,4.8,,0,0.,4.8,0.,4.8
1979-07-28 18:18:00.670 ,7,0,,0,16.,4.8,0.,4.8,,0,0.,4.8,0.,4.8
1979-07-28 18:18:05.470 ,7,0,,0,6.,4.8,0.,4.8,,0,0.,4.8,0.,4.8
1979-07-28 18:18:10.270 ,7,0,,0,11.,4.8,0.,4.8,,0,0.,4.8,0.,4.8
1979-07-28 18:18:15.070 ,7,0,,0,0.,4.8,0.,4.8,,0,0.,4.8,0.,4.8
1979-07-28 18:18:19.870 ,7,0,,0,0.,4.8,0.,4.8,,0,0.,4.8,0.,4.8
1979-07-28 18:18:24.670 ,6,0,,0,0.,4.8,0.,4.8,,0,0.,4.8,0.,4.8
1979-07-28 18:18:29.470 ,6,0,,0,0.,4.8,0.,4.8,,0,0.,4.8,0.,4.8
1979-07-28 18:18:34.270 ,6,0,,0,1.,4.8,0.,4.8,,0,0.,4.8,0.,4.8
1979-07-28 18:18:39.070 ,6,0,,0,7.,4.8,0.,4.8,,0,0.,4.8,1.,4.8
1979-07-28 18:18:43.870 ,6,0,,0,8.,4.8,0.,4.8,,0,0.,4.8,2.,4.8
1979-07-28 18:18:48.670 ,6,0,,0,4.,4.8,0.,4.8,,0,0.,4.8,3.,4.8
1979-07-28 18:18:53.470 ,6,0,,0,8.,4.8,0.,4.8,,0,0.,4.8,3.,4.8
1979-07-28 18:18:58.270 ,6,0,,0,7.,4.8,1.,4.8,,0,0.,4.8,0.,4.8
1979-07-28 18:19:03.070 ,6,0,,0,0.,4.8,0.,4.8,,0,0.,4.8,1.,4.8
1979-07-28 18:19:07.870 ,6,0,,0,0.,4.8,0.,4.8,,0,0.,4.8,0.,4.8
1979-07-28 18:19:12.670 ,5,0,,0,0.,4.8,0.,4.8,,0,0.,4.8,2.,4.8
1979-07-28 18:19:17.470 ,5,0,,0,0.,4.8,0.,4.8,,0,0.,4.8,1.,4.8
1979-07-28 18:19:22.270 ,5,0,,0,3.,4.8,0.,4.8,,0,0.,4.8,2.,4.8
1979-07-28 18:19:27.070 ,5,0,,0,3.,4.8,0.,4.8,,0,0.,4.8,1.,4.8
1979-07-28 18:19:31.870 ,5,0,,0,6.,4.8,1.,4.8,,0,0.,4.8,2.,4.8
1979-07-28 18:19:36.670 ,5,0,,0,4.,4.8,0.,4.8,,0,0.,4.8,1.,4.8
1979-07-28 18:19:41.470 ,5,0,,0,12.,4.8,0.,4.8,,0,0.,4.8,1.,4.8
1979-07-28 18:19:46.270 ,5,0,,0,8.,4.8,0.,4.8,,0,0.,4.8,1.,4.8
1979-07-28 18:19:51.070 ,5,0,,0,0.,4.8,0.,4.8,,0,0.,4.8,0.,4.8
1979-07-28 18:19:55.870 ,5,0,,0,0.,4.8,0.,4.8,,0,0.,4.8,1.,4.8
1979-07-28 18:20:00.670 ,4,0,,0,0.,4.8,0.,4.8,,0,0.,4.8,2.,4.8
1979-07-28 18:20:05.470 ,4,0,,0,0.,4.8,0.,4.8,,0,0.,4.8,2.,4.8
1979-07-28 18:20:10.270 ,4,0,,0,1.,4.8,0.,4.8,,0,0.,4.8,2.,4.8
1979-07-28 18:20:15.070 ,4,0,,0,9.,4.8,2.,4.8,,0,0.,4.8,1.,4.8
1979-07-28 18:20:19.870 ,4,0,,0,10.,4.8,1.,4.8,,0,0.,4.8,3.,4.8
1979-07-28 18:20:24.670 ,4,0,,0,9.,4.8,0.,4.8,,0,0.,4.8,3.,4.8
1979-07-28 18:20:29.470 ,4,0,,0,4.,4.8,1.,4.8,,0,0.,4.8,3.,4.8
1979-07-28 18:20:34.270 ,4,0,,0,7.,4.8,1.,4.8,,0,0.,4.8,2.,4.8
1979-07-28 18:20:39.070 ,4,0,,0,0.,4.8,0.,4.8,,0,0.,4.8,1.,4.8
1979-07-28 18:20:43.870 ,4,0,,0,0.,4.8,0.,4.8,,0,0.,4.8,1.,4.8
1979-07-28 18:20:48.670 ,3,0,,0,0.,4.8,0.,4.8,,0,0.,4.8,1.,4.8
1979-07-28 18:20:53.470 ,3,0,,0,0.,4.8,0.,4.8,,0,0.,4.8,1.,4.8
1979-07-28 18:20:58.270 ,3,0,,0,1.,4.8,0.,4.8,,0,0.,4.8,7.,4.8
1979-07-28 18:21:03.070 ,3,0,,0,6.,4.8,0.,4.8,,0,0.,4.8,2.,4.8
1979-07-28 18:21:07.870 ,3,0,,0,7.,4.8,0.,4.8,,0,0.,4.8,7.,4.8
1979-07-28 18:21:12.670 ,3,0,,0,7.,4.8,0.,4.8,,0,0.,4.8,8.,4.8
1979-07-28 18:21:17.470 ,3,0,,0,11.,4.8,0.,4.8,,0,0.,4.8,6.,4.8
1979-07-28 18:21:22.270 ,3,0,,0,8.,4.8,1.,4.8,,0,1.,4.8,5.,4.8
1979-07-28 18:21:27.070 ,3,0,,0,0.,4.8,0.,4.8,,0,0.,4.8,6.,4.8
1979-07-28 18:21:31.870 ,3,0,,0,0.,4.8,0.,4.8,,0,0.,4.8,4.,4.8
1979-07-28 18:21:36.670 ,2,0,,0,0.,4.8,0.,4.8,,0,0.,4.8,4.,4.8
1979-07-28 18:21:41.470 ,2,0,,0,0.,4.8,0.,4.8,,0,0.,4.8,3.,4.8
1979-07-28 18:21:46.270 ,2,0,,0,0.,4.8,0.,4.8,,0,0.,4.8,8.,4.8
1979-07-28 18:21:51.070 ,2,0,,0,6.,4.8,0.,4.8,,0,0.,4.8,5.,4.8
1979-07-28 18:21:55.870 ,2,0,,0,8.,4.8,1.,4.8,,0,0.,4.8,1.,4.8
1979-07-28 18:22:00.670 ,2,0,,0,9.,4.8,0.,4.8,,0,0.,4.8,4.,4.8
1979-07-28 18:22:05.470 ,2,0,,0,6.,4.8,0.,4.8,,0,0.,4.8,2.,4.8
1979-07-28 18:22:10.270 ,2,0,,0,6.,4.8,0.,4.8,,0,0.,4.8,3.,4.8
1979-07-28 18:22:15.070 ,2,0,,0,0.,4.8,0.,4.8,,0,0.,4.8,3.,4.8
1979-07-28 18:22:19.870 ,2,0,,0,0.,4.8,0.,4.8,,0,0.,4.8,6.,4.8
1979-07-28 18:22:24.670 ,1,0,,0,0.,4.8,0.,4.8,,0,0.,4.8,0.,4.8
1979-07-28 18:22:29.470 ,1,0,,0,0.,4.8,0.,4.8,,0,0.,4.8,0.,4.8
1979-07-28 18:22:34.270 ,1,0,,0,1.,4.8,0.,4.8,,0,0.,4.8,0.,4.8
1979-07-28 18:22:39.070 ,1,0,,0,3.,4.8,0.,4.8,,0,0.,4.8,6.,4.8
1979-07-28 18:22:43.870 ,1,0,,0,3.,4.8,0.,4.8,,0,0.,4.8,2.,4.8
1979-07-28 18:22:48.670 ,1,0,,0,7.,4.8,1.,4.8,,0,0.,4.8,1.,4.8
1979-07-28 18:22:53.470 ,1,0,,0,7.,4.8,0.,4.8,,0,0.,4.8,1.,4.8
1979-07-28 18:22:58.270 ,1,0,,0,4.,4.8,1.,4.8,,0,0.,4.8,3.,4.8
1979-07-28 18:23:03.070 ,1,0,,0,0.,4.8,0.,4.8,,0,0.,4.8,1.,4.8
1979-07-28 18:23:07.870 ,1,0,,0,0.,4.8,0.,4.8,,0,0.,4.8,0.,4.8
1979-07-28 18:23:12.670 ,0,0,,0,0.,4.8,0.,4.8,,0,0.,4.8,1.,4.8
1979-07-28 18:23:17.470 ,0,0,,0,0.,4.8,0.,4.8,,0,0.,4.8,1.,4.8
1979-07-28 18:23:22.270 ,0,0,,0,3.,4.8,0.,4.8,,0,0.,4.8,2.,4.8
1979-07-28 18:23:27.070 ,0,0,,0,10.,4.8,0.,4.8,,0,0.,4.8,1.,4.8
1979-07-28 18:23:31.870 ,0,0,,0,3.,4.8,0.,4.8,,0,0.,4.8,0.,4.8
1979-07-28 18:23:36.670 ,0,0,,0,3.,4.8,0.,4.8,,0,0.,4.8,2.,4.8
1979-07-28 18:23:41.470 ,0,0,,0,6.,4.8,0.,4.8,,0,0.,4.8,1.,4.8
1979-07-28 18:23:46.270 ,0,0,,0,3.,4.8,0.,4.8,,0,0.,4.8,3.,4.8
1979-07-28 18:23:51.070 ,0,0,,0,0.,4.8,0.,4.8,,0,0.,4.8,1.,4.8
1979-07-28 18:23:55.870 ,0,0,,0,0.,4.8,0.,4.8,,0,0.,4.8,1.,4.8
1979-07-28 18:24:00.670 ,0,0,,0,0.,4.8,0.,4.8,,0,0.,4.8,0.,4.8
1979-07-28 18:24:05.470 ,0,0,,0,0.,4.8,0.,4.8,,0,0.,4.8,0.,4.8
1979-07-28 18:24:10.270 ,0,0,,0,1.,4.8,0.,4.8,,0,0.,4.8,3.,4.8
1979-07-28 18:24:15.070 ,0,0,,0,4.,4.8,0.,4.8,,0,0.,4.8,3.,4.8
1979-07-28 18:24:19.870 ,0,0,,0,3.,4.8,0.,4.8,,0,0.,4.8,1.,4.8
1979-07-28 18:24:24.670 ,0,0,,0,5.,4.8,0.,4.8,,0,0.,4.8,0.,4.8
1979-07-28 18:24:29.470 ,0,0,,0,5.,4.8,0.,4.8,,0,0.,4.8,2.,4.8
1979-07-28 18:24:34.270 ,0,0,,0,3.,4.8,0.,4.8,,0,0.,4.8,2.,4.8
1979-07-28 18:24:39.070 ,0,0,,0,0.,4.8,0.,4.8,,0,0.,4.8,1.,4.8
1979-07-28 18:24:43.870 ,0,0,,0,0.,4.8,0.,4.8,,0,0.,4.8,4.,4.8
1979-07-28 18:24:48.670 ,1,0,,0,0.,4.8,0.,4.8,,0,0.,4.8,4.,4.8
1979-07-28 18:24:53.470 ,1,0,,0,0.,4.8,0.,4.8,,0,0.,4.8,3.,4.8
1979-07-28 18:24:58.270 ,1,0,,0,1.,4.8,0.,4.8,,0,0.,4.8,0.,4.8
1979-07-28 18:25:03.070 ,1,0,,0,3.,4.8,0.,4.8,,0,0.,4.8,3.,4.8
1979-07-28 18:25:07.860 ,1,0,,0,5.,4.8,0.,4.8,,0,0.,4.8,0.,4.8
1979-07-28 18:25:12.670 ,1,0,,0,2.,4.8,0.,4.8,,0,0.,4.8,1.,4.8
1979-07-28 18:25:17.470 ,1,0,,0,5.,4.8,0.,4.8,,0,0.,4.8,1.,4.8
1979-07-28 18:25:22.270 ,1,0,,0,3.,4.8,1.,4.8,,0,0.,4.8,0.,4.8
1979-07-28 18:25:27.070 ,1,0,,0,0.,4.8,0.,4.8,,0,0.,4.8,1.,4.8
1979-07-28 18:25:31.860 ,1,0,,0,0.,4.8,0.,4.8,,0,0.,4.8,2.,4.8
1979-07-28 18:25:36.670 ,2,0,,0,0.,4.8,0.,4.8,,0,0.,4.8,1.,4.8
1979-07-28 18:25:41.470 ,2,0,,0,0.,4.8,0.,4.8,,0,0.,4.8,0.,4.8
1979-07-28 18:25:46.270 ,2,0,,0,1.,4.8,0.,4.8,,0,0.,4.8,3.,4.8
1979-07-28 18:25:51.070 ,2,0,,0,6.,4.8,0.,4.8,,0,0.,4.8,4.,4.8
1979-07-28 18:25:55.870 ,2,0,,0,7.,4.8,1.,4.8,,0,0.,4.8,4.,4.8
1979-07-28 18:26:00.670 ,2,0,,0,6.,4.8,0.,4.8,,0,0.,4.8,3.,4.8
1979-07-28 18:26:05.470 ,2,0,,0,6.,4.8,0.,4.8,,0,0.,4.8,3.,4.8
1979-07-28 18:26:10.270 ,2,0,,0,6.,4.8,0.,4.8,,0,0.,4.8,3.,4.8
1979-07-28 18:26:15.070 ,2,0,,0,0.,4.8,0.,4.8,,0,0.,4.8,2.,4.8
1979-07-28 18:26:19.870 ,2,0,,0,0.,4.8,0.,4.8,,0,0.,4.8,2.,4.8
1979-07-28 18:26:24.670 ,3,0,,0,0.,4.8,0.,4.8,,0,0.,4.8,4.,4.8
1979-07-28 18:26:29.470 ,3,0,,0,0.,4.8,0.,4.8,,0,0.,4.8,5.,4.8
1979-07-28 18:26:34.270 ,3,0,,0,3.,4.8,0.,4.8,,0,0.,4.8,5.,4.8
1979-07-28 18:26:39.070 ,3,0,,0,13.,4.8,0.,4.8,,0,0.,4.8,7.,4.8
1979-07-28 18:26:43.870 ,3,0,,0,12.,4.8,0.,4.8,,0,0.,4.8,7.,4.8
1979-07-28 18:26:48.670 ,3,0,,0,5.,4.8,0.,4.8,,0,0.,4.8,1.,4.8
1979-07-28 18:26:53.470 ,3,0,,0,12.,4.8,1.,4.8,,0,0.,4.8,8.,4.8
1979-07-28 18:26:58.270 ,3,0,,0,13.,4.8,1.,4.8,,0,0.,4.8,4.,4.8
1979-07-28 18:27:03.070 ,3,0,,0,0.,4.8,0.,4.8,,0,0.,4.8,5.,4.8
1979-07-28 18:27:07.860 ,3,0,,0,0.,4.8,0.,4.8,,0,0.,4.8,4.,4.8
1979-07-28 18:27:12.670 ,4,0,,0,0.,4.8,0.,4.8,,0,0.,4.8,6.,4.8
1979-07-28 18:27:17.470 ,4,0,,0,0.,4.8,0.,4.8,,0,0.,4.8,1.,4.8
1979-07-28 18:27:22.270 ,4,0,,0,0.,4.8,0.,4.8,,0,1.,4.8,5.,4.8
1979-07-28 18:27:27.070 ,4,0,,0,9.,4.8,0.,4.8,,0,0.,4.8,1.,4.8
1979-07-28 18:27:31.860 ,4,0,,0,8.,4.8,1.,4.8,,0,0.,4.8,3.,4.8
1979-07-28 18:27:36.670 ,4,0,,0,8.,4.8,0.,4.8,,0,0.,4.8,3.,4.8
1979-07-28 18:27:41.470 ,4,0,,0,5.,4.8,0.,4.8,,0,0.,4.8,1.,4.8
1979-07-28 18:27:46.270 ,4,0,,0,4.,4.8,0.,4.8,,0,0.,4.8,0.,4.8
1979-07-28 18:27:51.070 ,4,0,,0,0.,4.8,0.,4.8,,0,0.,4.8,1.,4.8
1979-07-28 18:27:55.870 ,4,0,,0,0.,4.8,0.,4.8,,0,0.,4.8,3.,4.8
1979-07-28 18:28:00.670 ,5,0,,0,1.,4.8,0.,4.8,,0,0.,4.8,0.,4.8
1979-07-28 18:28:05.470 ,5,0,,0,0.,4.8,0.,4.8,,0,0.,4.8,1.,4.8
1979-07-28 18:28:10.270 ,5,0,,0,0.,4.8,0.,4.8,,0,0.,4.8,1.,4.8
1979-07-28 18:28:15.070 ,5,0,,0,2.,4.8,0.,4.8,,0,0.,4.8,1.,4.8
1979-07-28 18:28:19.860 ,5,0,,0,5.,4.8,0.,4.8,,0,0.,4.8,1.,4.8
1979-07-28 18:28:24.670 ,5,0,,0,10.,4.8,0.,4.8,,0,0.,4.8,0.,4.8
1979-07-28 18:28:29.470 ,5,0,,0,7.,4.8,0.,4.8,,0,0.,4.8,1.,4.8
1979-07-28 18:28:34.270 ,5,0,,0,2.,4.8,0.,4.8,,0,0.,4.8,1.,4.8
1979-07-28 18:28:39.070 ,5,0,,0,0.,4.8,0.,4.8,,0,0.,4.8,3.,4.8
1979-07-28 18:28:43.870 ,5,0,,0,0.,4.8,0.,4.8,,0,0.,4.8,1.,4.8
1979-07-28 18:28:48.670 ,6,0,,0,0.,4.8,0.,4.8,,0,0.,4.8,3.,4.8
1979-07-28 18:28:53.470 ,6,0,,0,0.,4.8,0.,4.8,,0,0.,4.8,0.,4.8
1979-07-28 18:28:58.270 ,6,0,,0,0.,4.8,0.,4.8,,0,0.,4.8,0.,4.8
1979-07-28 18:29:03.070 ,6,0,,0,4.,4.8,1.,4.8,,0,0.,4.8,0.,4.8
1979-07-28 18:29:07.860 ,6,0,,0,4.,4.8,0.,4.8,,0,0.,4.8,1.,4.8
1979-07-28 18:29:12.670 ,6,0,,0,6.,4.8,0.,4.8,,0,0.,4.8,1.,4.8
1979-07-28 18:29:17.470 ,6,0,,0,5.,4.8,0.,4.8,,0,0.,4.8,1.,4.8
1979-07-28 18:29:22.270 ,6,0,,0,2.,4.8,0.,4.8,,0,1.,4.8,0.,4.8
1979-07-28 18:29:27.070 ,6,0,,0,0.,4.8,0.,4.8,,0,0.,4.8,0.,4.8
1979-07-28 18:29:31.860 ,6,0,,0,0.,4.8,0.,4.8,,0,0.,4.8,1.,4.8
1979-07-28 18:29:36.670 ,7,0,,0,0.,4.8,0.,4.8,,0,0.,4.8,0.,4.8
1979-07-28 18:29:41.470 ,7,0,,0,0.,4.8,0.,4.8,,0,0.,4.8,0.,4.8
1979-07-28 18:29:46.270 ,7,0,,0,1.,4.8,0.,4.8,,0,0.,4.8,0.,4.8
1979-07-28 18:29:51.070 ,7,0,,0,13.,4.8,0.,4.8,,0,0.,4.8,0.,4.8
1979-07-28 18:29:55.870 ,7,0,,0,14.,4.8,0.,4.8,,0,0.,4.8,0.,4.8
1979-07-28 18:30:00.670 ,7,0,,0,9.,4.8,0.,4.8,,0,0.,4.8,0.,4.8
1979-07-28 18:30:05.470 ,7,0,,0,8.,4.8,0.,4.8,,0,0.,4.8,0.,4.8
1979-07-28 18:30:10.270 ,7,0,,0,9.,4.8,0.,4.8,,0,0.,4.8,0.,4.8